Tacoma Narrows, WA
on Wednesday, December 12, 2012

Wednesday
Previous Day Next Day
Daily Summary
 ActualAverageRecord
Temperature
Mean Temperature °F °F  
Max Temperature 44°F 45°F 59°F (2002)
Min Temperature 37°F 37°F 28°F (2011)
Degree Days
Heating Degree Days 24    
Moisture
Dew Point 37°F   
Average Humidity 84    
Maximum Humidity 93    
Minimum Humidity 76    
Precipitation
Precipitation 0.01 in in in ()
Wind
Wind Speed 5 mph   
Max Wind Speed 9 mph   
Max Gust Speed mph   
Visibility 10 miles   
Events Rain   
Averages and records for this station are not official NWS values.
Key: T is trace of precipitation, MM is missing value
Source: NWS Daily Summary
Seasonal Weather Averages
Time(PST)TemperatureDew PointHumidity Pressure Visibility Wind DirectionWind SpeedGust SpeedPrecipitationEvents Conditions
12:12 AM 42.8°F 39.2°F 87% 29.62 in 10.0 miles SW 8.1 mph - N/A   Overcast
12:53 AM 43.0°F 37.9°F 82% 29.63 in 10.0 miles SSW 5.8 mph - N/A   Overcast
1:53 AM 42.1°F 37.0°F 82% 29.65 in 10.0 miles SSW 8.1 mph - N/A   Overcast
2:53 AM 42.1°F 37.9°F 85% 29.67 in 10.0 miles South 9.2 mph - N/A   Overcast
3:53 AM 42.1°F 37.9°F 85% 29.68 in 10.0 miles SSW 8.1 mph - N/A   Overcast
4:53 AM 42.1°F 37.0°F 82% 29.69 in 10.0 miles SSW 6.9 mph - N/A   Overcast
5:29 AM 42.8°F 37.4°F 81% 29.70 in 10.0 miles SSW 6.9 mph - N/A   Overcast
5:53 AM 42.1°F 37.0°F 82% 29.71 in 10.0 miles SSW 5.8 mph - 0.01 in Rain Light Rain
6:34 AM 41.0°F 37.4°F 87% 29.72 in 10.0 miles SSW 5.8 mph - 0.00 in   Overcast
6:53 AM 41.0°F 37.0°F 86% 29.73 in 10.0 miles SSW 5.8 mph - 0.00 in   Overcast
7:03 AM 41.0°F 37.4°F 87% 29.73 in 10.0 miles SSW 6.9 mph - N/A   Overcast
7:53 AM 42.1°F 37.0°F 82% 29.76 in 10.0 miles Calm Calm - N/A   Overcast
8:53 AM 41.0°F 37.0°F 86% 29.79 in 10.0 miles SSW 4.6 mph - N/A   Overcast
9:53 AM 42.1°F 37.0°F 82% 29.82 in 10.0 miles SW 4.6 mph - N/A   Mostly Cloudy
10:53 AM 43.0°F 37.0°F 80% 29.84 in 10.0 miles SW 5.8 mph - N/A   Mostly Cloudy
11:53 AM 43.0°F 37.0°F 80% 29.85 in 10.0 miles West 3.5 mph - N/A   Overcast
12:53 PM 44.1°F 37.0°F 76% 29.86 in 10.0 miles Calm Calm - N/A   Overcast
1:53 PM 44.1°F 37.0°F 76% 29.88 in 10.0 miles Calm Calm - N/A   Overcast
2:53 PM 44.1°F 37.0°F 76% 29.90 in 10.0 miles Calm Calm - N/A   Overcast
3:53 PM 43.0°F 37.0°F 80% 29.91 in 10.0 miles Calm Calm - N/A   Mostly Cloudy
4:53 PM 43.0°F 37.0°F 80% 29.93 in 10.0 miles NW 3.5 mph - N/A   Mostly Cloudy
5:53 PM 43.0°F 37.9°F 82% 29.95 in 10.0 miles Calm Calm - N/A   Overcast
6:53 PM 42.1°F 39.0°F 89% 29.96 in 10.0 miles Calm Calm - N/A   Overcast
7:53 PM 42.1°F 39.0°F 89% 29.99 in 10.0 miles WNW 3.5 mph - N/A   Overcast
8:53 PM 42.1°F 37.9°F 85% 30.00 in 10.0 miles Calm Calm - N/A   Overcast
9:53 PM 39.0°F 37.0°F 93% 30.01 in 10.0 miles Calm Calm - N/A   Scattered Clouds
10:06 PM 37.4°F 35.6°F 93% 30.01 in 10.0 miles Calm Calm - N/A   Mostly Cloudy
10:53 PM 41.0°F 37.9°F 89% 30.03 in 8.0 miles Calm Calm - N/A   Overcast
11:48 PM 42.8°F 37.4°F 81% 30.02 in 10.0 miles Calm Calm - N/A   Overcast
11:53 PM 42.1°F 37.9°F 85% 30.03 in 10.0 miles Calm Calm - N/A   Overcast
Moon Phase
Dec. 12 Dec. 13 Dec. 20 Dec. 28 Jan. 04
Sunrise:07:48 AM (PST) Moon Rise:06:57 AM (PST)12/12
Sunset:04:20 PM (PST) Moon Set:04:04 PM (PST)12/12

Copyright © 2014 The Weather Underground, Inc.